Regional Weather Roundup
Issued by NWS

Home | Current Version | Previous Version | Text Only | Print | Product List | Glossary Off
Versions: 1 2 3 4 5 6 7 8 9 10 11 12 13 14 15 16 17 18 19 20 21 22 23 24 25 26 27 28 29 30 31 32 33 34 35 36 37 38 39 40 41 42 43 44 45 46 47 48 49 50

585
ASUS43 KFSD 041410
RWRSD

WEATHER ROUNDUP FOR SOUTH DAKOTA
NATIONAL WEATHER SERVICE SIOUX FALLS SD
800 AM CST SUN DEC 04 2016

NOTE: "FAIR" INDICATES FEW OR NO CLOUDS BELOW 12,000 FEET WITH NO
SIGNIFICANT WEATHER AND/OR OBSTRUCTIONS TO VISIBILITY.


SDZ001>005-009-010-012>017-041500-
NORTHWEST AND NORTH CENTRAL SOUTH DAKOTA

CITY           SKY/WX    TMP DP  RH WIND       PRES   REMARKS
BUFFALO          N/A     28  21  75 W10       29.75F WCI  19
FAITH            N/A     27  22  81 W14       29.82F WCI  16
MOBRIDGE       PTCLDY    28  20  71 W8        29.79R WCI  20
$$

SDZ012>016-024>037-041>051-057-063-072>074-041500-
SOUTHWEST AND SOUTH CENTRAL SOUTH DAKOTA

CITY           SKY/WX    TMP DP  RH WIND       PRES   REMARKS
RAPID CTY ARPT MOCLDY    26  17  68 SW5       29.88S WCI  20
PIERRE         PTCLDY    26  22  84 W9        29.86S WCI  17
CUSTER         CLOUDY    20  14  77 NW6       29.85F WCI  12
ELLSWORTH AFB  PTCLDY    26  18  72 W8        29.87S WCI  18
PHILIP         PTCLDY    26  21  81 NW3       29.89S
PINE RIDGE     CLOUDY    27  17  66 W7        29.94S WCI  19
SPEARFISH      FAIR      30  18  59 W10       29.86S WCI  21
WINNER         FAIR      32  24  72 W10       29.90R WCI  24
$$

SDZ004>011-016>023-039-040-041500-
NORTHEAST SOUTH DAKOTA

CITY           SKY/WX    TMP DP  RH WIND       PRES   REMARKS
ABERDEEN       CLEAR     28  24  85 SW8       29.79S WCI  20
WATERTOWN      CLOUDY    29  27  92 SW12      29.80R WCI  19
BROOKINGS      CLEAR     29  27  92 SW9       29.83R WCI  20
SISSETON         N/A     33  29  85 E6        29.76F WCI  28
$$

SDZ017-020-022-023-036>040-048>070-041500-
SOUTHEAST SOUTH DAKOTA

CITY           SKY/WX    TMP DP  RH WIND       PRES   REMARKS
SIOUX FALLS    CLOUDY    31  31 100 SW5       29.88R FOG     WCI  26
HURON          CLEAR     27  24  89 SW9       29.86R WCI  18
CHAMBERLAIN    CLEAR     29  26  86 W8        29.89S WCI  21
MITCHELL       PTCLDY    32  26  78 SW9       29.89S WCI  24
YANKTON        CLEAR     28  25  86 W5        29.91R WCI  23
$$

ABBREVIATIONS USED IN REMARKS
   TC - TEMPERATURE IN CELSIUS
  WCI - WIND CHILL INDEX
   HX - HEAT INDEX
  VSB - VISIBILITY





USA.gov is the U.S. government's official web portal to all federal, state and local government web resources and services.